Vorticity
17 -2 3 4 1 1 1 2 1 2 5 7 6 5 4 4 6 12 13 15 15 17 16 16 15 18 15 16 15 11 9 7 8 9 11 7 5 6 6 5 3 4 3 3 4 4 5 4 3
4 4 1 4 -2 4 10 7 6 6 5 6 7 13 16 15 15 10 5 1 3 4 4 6 3 3 7 6 4 2 6 11 13 10 6 6 12 9 6 9 6 5 3 4 4 3 4 4 4
2 3 5 7 6 6 5 5 5 12 16 19 10 4 2 2 4 4 3 4 3 4 4 4 3 3 3 5 5 5 5 4 6 6 7 11 7 4 9 5 4 8 5 4 4 5 4 5 5
4 4 3 8 8 11 17 18 7 4 3 5 5 4 5 3 4 6 3 5 4 4 3 4 4 4 5 10 5 8 10 5 11 4 6 3 7 11 9 8 11 2 5 8 5 4 5 7 5
8 8 12 19 12 6 6 7 7 7 7 8 8 6 4 5 4 4 4 4 4 5 5 4 3 3 2 3 4 6 6 6 11 7 11 6 4 4 7 8 9 7 8 9 4 7 6 6 7
13 8 6 6 7 8 5 4 7 3 -1 4 3 2 1 4 7 4 2 1 1 2 2 2 1 1 -0 1 1 -1 2 -2 6 6 5 8 8 6 4 4 8 10 8 4 10 5 5 7 5
7 12 5 0 0 2 3 0 2 1 1 3 4 1 3 3 1 -1 1 2 3 3 2 1 1 1 2 2 3 4 5 7 6 4 8 12 9 2 8 5 3 6 10 8 10 8 7 4 8
1 -2 2 2 3 1 -1 4 3 5 5 0 3 4 3 2 1 3 4 4 3 1 1 2 0 0 3 5 6 6 4 5 5 7 10 18 7 8 3 8 6 6 -4 6 10 -1 0 6 3
0 -0 1 1 0 1 5 3 6 5 4 5 5 3 4 4 3 3 6 6 4 4 6 5 4 5 6 5 4 5 7 5 7 6 3 10 19 11 9 5 2 4 2 7 11 -2 9 20 8
5 2 5 6 5 5 7 6 5 5 5 7 5 4 5 6 4 8 9 4 4 6 9 10 4 4 6 3 5 10 15 16 16 13 8 10 25 16 11 4 6 4 8 4 -6 4 22 2 6
4 5 7 5 4 6 5 4 5 8 7 10 11 9 9 6 7 8 9 4 4 6 6 5 4 3 2 4 7 7 8 8 10 17 18 8 5 27 13 5 6 7 7 8 12 1 -1 5 21
7 10 5 3 6 4 4 9 4 4 8 9 8 5 8 7 4 5 6 4 6 8 6 4 4 4 6 4 8 10 8 6 13 13 14 10 3 28 24 3 6 7 8 9 9 10 7 -3 14
7 3 5 6 3 8 6 2 6 8 7 3 3 4 6 7 7 6 6 4 7 7 6 7 6 5 5 6 5 3 8 9 12 12 11 11 8 16 24 18 0 6 10 8 9 8 8 2 -3
6 7 8 3 9 3 4 5 6 4 5 3 4 9 8 7 7 6 4 5 7 6 7 6 4 4 5 2 3 8 9 9 13 14 14 14 15 17 22 20 9 -0 9 9 11 11 8 6 2
8 7 4 6 3 2 7 7 5 2 4 1 2 5 4 5 5 5 5 5 6 8 7 8 6 5 3 5 1 -2 6 10 12 16 12 12 16 16 20 16 20 5 10 7 9 13 12 7 8
9 4 7 2 4 6 7 7 2 3 3 4 2 5 6 4 3 4 5 6 5 7 9 10 7 2 2 2 3 9 7 6 15 15 12 14 16 17 20 18 15 22 15 13 12 8 16 9 8
5 6 3 4 4 4 4 6 3 5 5 5 5 5 5 5 4 5 5 3 7 8 5 2 3 4 5 4 9 9 10 13 17 14 12 16 18 16 10 20 18 13 16 19 22 12 7 14 10
4 3 3 3 5 5 5 5 4 4 7 8 6 6 8 4 6 5 4 6 5 5 7 7 6 4 6 9 7 8 7 16 18 11 13 15 16 19 13 6 12 12 17 19 13 21 14 7 9
5 2 3 4 5 5 4 5 7 11 9 2 12 5 8 6 7 5 6 5 6 5 4 5 5 10 12 6 8 8 8 19 15 11 17 16 17 15 10 7 13 5 7 11 19 12 19 16 8
6 3 5 6 4 5 4 7 7 4 11 9 8 9 7 8 7 6 5 5 4 5 4 7 11 8 5 5 5 6 8 25 17 10 13 16 17 20 15 11 6 9 9 4 5 21 19 21 13
5 6 6 5 7 4 7 7 8 13 7 5 13 6 11 8 7 6 6 5 6 6 6 8 5 3 4 6 8 7 16 21 14 12 16 17 19 20 19 16 17 1 9 13 5 3 12 19 24
6 7 6 7 5 4 6 5 4 7 7 9 9 9 10 5 7 4 4 5 5 3 5 7 6 6 3 8 7 6 24 21 13 11 13 16 20 22 20 16 15 19 5 4 -1 -1 3 8 17
7 8 8 6 4 5 2 5 4 5 6 8 10 6 6 8 4 5 7 6 4 5 8 5 3 7 7 9 9 12 25 12 10 15 17 18 20 20 23 22 15 15 18 18 2 4 7 2 0
8 6 5 5 3 3 6 3 8 5 4 15 5 7 7 3 4 5 5 6 6 8 5 4 7 4 7 9 7 24 18 11 14 16 16 18 18 22 21 23 23 15 14 17 15 13 6 12 10
8 4 3 4 5 4 5 5 6 5 10 9 6 6 1 4 3 5 6 5 6 5 4 2 6 6 7 13 15 24 14 11 17 17 18 16 18 20 21 22 22 21 17 14 15 15 13 5 12
5 4 4 5 3 3 5 6 7 7 10 8 8 4 7 6 7 5 5 4 3 2 8 9 8 6 9 6 29 21 11 14 17 19 16 16 15 18 16 19 23 26 21 17 14 15 14 17 9
5 4 4 4 2 5 4 6 -1 6 6 8 6 5 6 4 6 7 4 3 4 7 6 3 5 8 9 20 24 15 11 16 18 18 18 14 9 13 18 13 19 23 24 21 23 16 13 12 15
6 4 6 4 4 3 7 1 13 2 8 8 3 5 4 9 7 1 2 7 4 3 6 10 8 11 14 28 17 12 15 19 21 16 17 9 10 10 9 17 16 21 15 19 20 24 16 12 13
5 5 4 5 4 6 4 6 4 9 4 4 3 2 5 8 2 5 7 4 4 9 10 7 9 10 23 23 14 14 18 21 18 15 12 11 12 10 10 11 7 16 24 8 17 20 24 16 12
5 5 5 7 5 6 4 6 -4 7 9 1 3 8 5 8 5 4 5 6 2 4 6 7 11 23 27 18 13 18 21 19 15 14 10 12 10 8 9 10 11 14 11 19 12 10 22 22 20
Height
5846 5849 5852 5854 5857 5856 5857 5860 5859 5859 5860 5859 5859 5859 5858 5857 5856 5857 5855 5855 5853 5852 5851 5850 5847 5847 5845 5844 5843 5842 5841 5840 5839 5839 5838 5838 5837 5837 5836 5834 5834 5833 5832 5831 5831 5831 5831 5830 5830
5849 5851 5853 5853 5854 5856 5857 5857 5857 5857 5858 5857 5858 5858 5857 5856 5855 5855 5854 5852 5851 5849 5848 5847 5845 5845 5843 5842 5840 5838 5837 5835 5834 5833 5832 5831 5831 5831 5830 5829 5828 5827 5826 5825 5825 5826 5826 5826 5825
5849 5851 5852 5853 5855 5857 5857 5856 5856 5857 5856 5856 5856 5856 5855 5854 5853 5852 5851 5848 5848 5847 5846 5844 5842 5840 5839 5837 5836 5834 5832 5830 5829 5827 5826 5825 5824 5823 5824 5823 5822 5821 5819 5819 5819 5820 5820 5820 5820
5849 5851 5852 5853 5853 5854 5855 5855 5855 5856 5856 5856 5855 5853 5854 5852 5852 5849 5849 5847 5846 5844 5842 5840 5838 5836 5834 5832 5831 5830 5828 5826 5825 5824 5821 5819 5818 5818 5816 5815 5815 5815 5814 5814 5813 5813 5814 5815 5814
5850 5851 5852 5853 5854 5855 5855 5855 5855 5855 5855 5855 5855 5853 5851 5850 5849 5847 5847 5844 5842 5840 5838 5836 5834 5831 5829 5827 5825 5822 5820 5818 5818 5816 5814 5813 5812 5811 5809 5808 5807 5806 5807 5807 5807 5806 5806 5807 5807
5852 5853 5854 5854 5854 5855 5855 5855 5855 5855 5854 5853 5853 5852 5850 5848 5846 5844 5841 5840 5838 5835 5834 5831 5829 5826 5824 5821 5818 5815 5812 5810 5810 5808 5807 5805 5803 5801 5801 5800 5799 5799 5798 5797 5798 5799 5799 5799 5799
5853 5854 5855 5856 5855 5854 5854 5854 5854 5853 5852 5851 5851 5850 5847 5846 5843 5842 5839 5836 5834 5833 5831 5827 5825 5823 5820 5817 5813 5811 5808 5806 5803 5799 5797 5796 5795 5792 5791 5790 5789 5788 5788 5788 5788 5789 5791 5791 5792
5855 5856 5855 5856 5855 5855 5854 5854 5853 5852 5851 5850 5848 5848 5845 5843 5841 5839 5837 5833 5831 5829 5826 5823 5820 5817 5814 5811 5808 5803 5800 5797 5793 5790 5788 5787 5784 5781 5779 5778 5778 5777 5778 5778 5778 5778 5779 5782 5783
5855 5856 5855 5855 5855 5854 5854 5852 5852 5850 5848 5846 5845 5842 5841 5839 5837 5835 5832 5830 5828 5825 5821 5818 5815 5812 5808 5804 5800 5795 5791 5786 5784 5780 5776 5773 5772 5770 5767 5765 5764 5764 5765 5766 5767 5768 5769 5770 5774
5855 5855 5855 5854 5854 5852 5851 5850 5848 5847 5845 5843 5842 5839 5837 5835 5834 5833 5829 5826 5825 5820 5816 5812 5808 5803 5799 5796 5791 5786 5783 5777 5772 5768 5764 5760 5757 5756 5754 5753 5750 5750 5751 5752 5755 5756 5757 5759 5762
5855 5855 5854 5854 5853 5852 5851 5850 5848 5846 5843 5842 5840 5838 5835 5832 5829 5828 5826 5822 5817 5813 5810 5806 5801 5796 5793 5788 5783 5777 5772 5765 5761 5758 5753 5748 5744 5741 5738 5736 5736 5735 5736 5737 5740 5743 5745 5747 5750
5855 5854 5853 5852 5851 5851 5850 5848 5846 5844 5842 5839 5837 5834 5831 5829 5824 5823 5820 5816 5812 5808 5802 5798 5793 5790 5785 5780 5773 5766 5760 5753 5747 5741 5736 5732 5728 5726 5723 5720 5719 5719 5719 5721 5725 5728 5732 5735 5738
5854 5854 5853 5852 5851 5849 5848 5847 5844 5842 5839 5835 5833 5831 5829 5826 5820 5816 5813 5810 5805 5800 5795 5791 5786 5781 5775 5768 5761 5754 5747 5739 5732 5725 5720 5715 5710 5708 5707 5705 5704 5704 5702 5705 5708 5712 5716 5720 5725
5854 5853 5852 5850 5849 5848 5846 5844 5841 5839 5836 5833 5829 5827 5824 5820 5815 5811 5807 5803 5798 5792 5788 5783 5777 5771 5764 5756 5749 5741 5734 5725 5717 5711 5704 5698 5694 5690 5689 5689 5688 5688 5688 5690 5693 5696 5699 5703 5709
5851 5851 5849 5848 5847 5845 5843 5841 5837 5835 5833 5830 5825 5822 5818 5814 5810 5805 5800 5796 5792 5786 5780 5774 5768 5760 5753 5745 5736 5728 5720 5712 5704 5696 5687 5681 5677 5673 5672 5671 5670 5671 5673 5675 5677 5681 5683 5685 5691
5849 5848 5847 5846 5844 5843 5841 5837 5833 5831 5827 5826 5821 5815 5812 5808 5803 5798 5793 5788 5783 5778 5771 5764 5757 5750 5742 5735 5727 5718 5709 5699 5691 5682 5674 5667 5661 5657 5656 5654 5653 5654 5656 5659 5662 5665 5669 5672 5675
5847 5846 5845 5842 5841 5838 5837 5835 5830 5826 5822 5818 5815 5810 5806 5801 5797 5791 5787 5781 5776 5769 5763 5756 5749 5741 5733 5725 5715 5705 5695 5685 5675 5667 5659 5651 5646 5642 5641 5640 5638 5638 5640 5642 5645 5649 5653 5657 5660
5844 5843 5841 5838 5836 5833 5830 5828 5825 5821 5817 5813 5808 5804 5799 5795 5790 5784 5779 5774 5767 5761 5754 5747 5740 5731 5722 5711 5701 5690 5680 5670 5660 5651 5642 5635 5630 5627 5626 5626 5626 5625 5625 5626 5628 5632 5635 5641 5644
5840 5838 5836 5834 5831 5828 5825 5822 5819 5815 5811 5807 5801 5797 5793 5788 5783 5777 5771 5764 5758 5751 5743 5736 5728 5718 5707 5697 5686 5676 5665 5654 5642 5633 5626 5619 5614 5610 5609 5611 5611 5612 5612 5612 5613 5616 5620 5623 5630
5836 5834 5831 5829 5825 5823 5820 5817 5811 5808 5803 5799 5794 5790 5786 5781 5775 5768 5762 5756 5750 5742 5732 5723 5713 5703 5693 5683 5671 5661 5651 5641 5628 5618 5609 5601 5597 5595 5593 5593 5594 5597 5599 5600 5600 5602 5605 5609 5611
5831 5829 5827 5824 5821 5818 5815 5813 5807 5802 5797 5793 5787 5782 5778 5773 5767 5761 5754 5747 5739 5729 5719 5710 5700 5689 5678 5667 5657 5645 5633 5621 5613 5602 5594 5587 5581 5577 5575 5575 5577 5580 5583 5586 5587 5589 5592 5595 5598
5826 5824 5822 5819 5817 5813 5809 5807 5803 5796 5792 5786 5780 5775 5769 5764 5757 5750 5743 5735 5727 5718 5707 5696 5686 5674 5663 5652 5641 5629 5618 5608 5598 5588 5579 5572 5565 5561 5557 5557 5558 5562 5567 5570 5572 5575 5579 5582 5585
5821 5818 5816 5813 5812 5809 5804 5800 5798 5790 5785 5778 5772 5767 5761 5754 5746 5739 5732 5723 5715 5705 5695 5684 5672 5661 5648 5635 5623 5612 5601 5589 5580 5571 5564 5557 5551 5544 5542 5540 5540 5543 5548 5552 5556 5560 5564 5568 5573
5815 5812 5810 5807 5805 5803 5798 5794 5790 5782 5777 5770 5764 5758 5751 5744 5737 5729 5720 5712 5702 5693 5683 5672 5660 5646 5633 5620 5607 5595 5584 5574 5565 5557 5550 5544 5537 5531 5526 5524 5525 5526 5530 5535 5539 5544 5549 5553 5557
5809 5806 5803 5801 5798 5795 5789 5784 5781 5773 5768 5762 5757 5750 5743 5734 5727 5720 5711 5701 5690 5680 5669 5658 5645 5633 5619 5606 5593 5580 5569 5559 5550 5544 5538 5531 5525 5519 5514 5511 5510 5511 5514 5519 5523 5527 5533 5538 5543
5803 5801 5797 5790 5788 5787 5783 5777 5771 5763 5757 5753 5747 5741 5734 5724 5717 5708 5699 5688 5677 5667 5656 5644 5630 5617 5604 5592 5580 5567 5554 5545 5538 5531 5525 5520 5514 5509 5505 5501 5498 5498 5500 5503 5508 5513 5517 5522 5528
5797 5794 5790 5785 5781 5776 5774 5769 5761 5755 5749 5742 5736 5729 5721 5713 5705 5696 5688 5678 5667 5655 5642 5628 5615 5603 5589 5577 5566 5554 5542 5533 5526 5520 5514 5510 5505 5500 5496 5492 5490 5488 5488 5490 5493 5498 5502 5507 5513
5790 5786 5781 5778 5771 5765 5764 5759 5752 5744 5738 5732 5726 5719 5711 5704 5696 5686 5676 5665 5652 5640 5628 5616 5602 5587 5574 5562 5550 5539 5530 5522 5515 5510 5506 5501 5497 5492 5488 5485 5482 5481 5480 5480 5482 5485 5489 5493 5499
5782 5778 5774 5770 5765 5757 5751 5752 5741 5734 5729 5724 5719 5711 5702 5693 5685 5675 5663 5651 5640 5628 5614 5600 5586 5572 5560 5549 5538 5527 5518 5511 5505 5501 5497 5493 5489 5485 5482 5478 5476 5474 5473 5472 5473 5474 5477 5481 5485
5775 5770 5766 5761 5758 5751 5745 5744 5734 5726 5720 5713 5706 5699 5691 5682 5672 5662 5651 5639 5626 5613 5599 5585 5571 5557 5546 5536 5525 5516 5508 5501 5496 5491 5488 5484 5481 5478 5475 5472 5469 5467 5466 5464 5465 5466 5468 5471 5475